Starlink 35247

operational
NORAD ID: 65622 Int'l Des: 2025-210 Owner: SPXS Country: US Constellation: starlink
NOTLE

About Starlink 35247

Description loading...

Live Position

Loading 3D Globe...

Upcoming Passes

Altitude History

Altitude vs Time

uPlot chart will show altitude changes over time

Two-Line Element Set

1 65622U 25210A 25312.56765896 .00071723 00000-0 17831-2 0 9998
2 65622 53.1577 150.6182 0001571 83.6588 276.4596 15.39673361 9176
Epoch: Nov 8, 2025 • Age: 45 hours

Current Status

Altitude 446.7 km
Velocity 7.65 km/s
Sub-Earth Point 25.50°N, 51.4°W
Launch Date Sep 18, 2025
Age 0.1 years
Type internet

Technical Details

Classification Payload
Mass 575.00 kg
Dry Mass 530.00 kg
Total Mass 575.00 kg
Length 0.30 m
Diameter 4.10 m
Span 29.00 m
Shape Box + pan
Manufacturer SPXS
Bus Type Starlink V2MO
Phase Status In Orbit
Owner/State SPXS/US

Large Constellations

Loading constellations...